Location: Dana
(41.8364°N, 106.7042°W)
Time: 02:18:21
(UTC+00:00)

Altair - Pass Details

Date: 18 May 2026
Orbit: 1501 x 1682 km, 47.2° (Epoch: 6 June)

Event Time Altitude Azimuth Distance (km) Brightness Sun altitude
Rises 09:25:09 0° 198° (SSW) 4,750 - -20.4°
Reaches altitude 10° 09:28:37 10° 188° (S) 3,796 - -20.0°
Exits shadow 09:30:52 17° 179° (S) 3,257 8.8 -19.7°
Maximum altitude 09:36:47 32° 131° (SE) 2,544 8.6 -19.1°
Drops below altitude 10° 09:45:09 10° 73° (ENE) 3,918 10.5 -18.1°
Sets 09:48:47 0° 64° (ENE) 4,924 11.4 -17.6°
